Meteo Giornale » Osservazioni meteo Italia » Palermo-Punta Raisi

ore: 14:50 - Osservazioni Meteo Palermo-Punta Raisi
Lat. 38° 11' N Lon. 13° 6' E Alt. 21 metri s.l.m.

molto_nuvoloso Europe/Rome

15 °C

Molto Nuvoloso

Temp. 24 Ore

13 °C

16 °C

Nord-Est

24 Km/h

Dew point 9 °C

Umidità 67 %

Visibilità  10 Km

Il sole sorge alle ore 06:56

Il sole tramonta alle ore 19:28

Data e Ora Cielo e Fenomeni T °C DP °C Um. % Pres. hPa Vis. km Vento km/h
Oggi h: 14:50 molto_nuvoloso Molto Nuvoloso 15 9 67 1021 10 NE 24
Oggi h: 14:20 molto_nuvoloso Molto Nuvoloso 16 9 63 1021 10 NE 24
Oggi h: 13:50 poco_nuvoloso Poco Nuvoloso 16 9 63 1021 10 NE 25.9
Oggi h: 13:20 poco_nuvoloso Poco Nuvoloso 16 9 63 1021 10 NE 27.8
Oggi h: 12:50 nuvoloso Nuvoloso 16 10 67 1021 10 NE 24
Oggi h: 12:20 nuvoloso Nuvoloso 16 8 58 1022 10 NE 24
Oggi h: 11:50 poco_nuvoloso Poco Nuvoloso 15 9 67 1021 10 NE 22.2
Oggi h: 11:20 poco_nuvoloso Poco Nuvoloso 15 10 72 1021 10 NE 24
Oggi h: 10:50 poco_nuvoloso Poco Nuvoloso 15 9 67 1021 10 NE 22.2
Oggi h: 10:20 poco_nuvoloso Poco Nuvoloso 15 10 72 1021 10 NE 22.2
Oggi h: 09:50 poco_nuvoloso Poco Nuvoloso 15 9 67 1020 10 NE 22.2
Oggi h: 09:20 nuvoloso Nuvoloso 15 10 72 1020 10 NE 20.3
Oggi h: 08:50 nuvoloso Nuvoloso 14 9 71 1020 10 NE 24
Oggi h: 08:20 nuvoloso Nuvoloso 15 11 76 1019 10 N/NE 31.5
Oggi h: 07:50 nuvoloso Nuvoloso 14 10 76 1019 10 N 18.5
Oggi h: 07:20 nuvoloso Nuvoloso 14 10 76 1019 10 N 27.8
Oggi h: 06:50 nuvoloso Nuvoloso 14 10 76 1019 10 N 24
Oggi h: 05:50 nuvoloso Nuvoloso 13 9 76 1019 10 N/NE 7.4
Oggi h: 05:20 nuvoloso Nuvoloso 13 9 76 1019 9 N/NO 9.3
Oggi h: 04:50 coperto_pioggia Pioggia 14 10 76 1019 7 N 27.8
Oggi h: 04:20 poco_nuvoloso Poco Nuvoloso 14 8 67 1019 10 N 13
Oggi h: 03:50 poco_nuvoloso Poco Nuvoloso 14 7 62 1019 10 N/NO 14.8
Oggi h: 03:20 poco_nuvoloso Poco Nuvoloso 14 7 62 1020 10 N 16.7
Oggi h: 01:50 poco_nuvoloso Poco Nuvoloso 14 6 58 1020 10 O/NO 27.8
Oggi h: 01:20 nuvoloso Nuvoloso 14 8 67 1020 10 O/NO 18.5
Oggi h: 00:50 nuvoloso Nuvoloso 14 8 67 1020 10 O 18.5
Oggi h: 00:20 nuvoloso Nuvoloso 14 7 62 1020 10 O/NO 24
Ieri h: 23:50 nuvoloso Nuvoloso 14 8 67 1020 10 O/NO 31.5
Ieri h: 23:20 nuvoloso Nuvoloso 14 10 76 1020 10 NO 27.8
Ieri h: 22:50 nuvoloso Nuvoloso 15 11 76 1020 10 NO 25.9
Ieri h: 22:20 nuvoloso Nuvoloso 15 11 76 1020 10 O/NO 16.7
Ieri h: 21:50 nuvoloso Nuvoloso 15 10 72 1020 10 O 11.1
Ieri h: 21:20 nuvoloso Nuvoloso 15 10 72 1019 10 O/NO 7.4
Ieri h: 20:50 nuvoloso Nuvoloso 15 11 76 1019 10 NO 7.4
Ieri h: 20:20 nuvoloso Nuvoloso 15 11 76 1019 10 N/NO 13
Ieri h: 19:50 nuvoloso Nuvoloso 15 9 67 1019 10 NO 13
Ieri h: 19:20 poco_nuvoloso Poco Nuvoloso 16 10 67 1019 10 NO 18.5
Ieri h: 18:50 poco_nuvoloso Poco Nuvoloso 16 10 67 1019 10 N/NO 18.5
Ieri h: 18:20 poco_nuvoloso Poco Nuvoloso 16 10 67 1019 10 N/NO 20.3
Ieri h: 17:50 poco_nuvoloso Poco Nuvoloso 16 10 67 1019 10 N/NO 20.3
Ieri h: 17:20 poco_nuvoloso Poco Nuvoloso 16 10 67 1018 10 N/NO 14.8
Ieri h: 16:50 poco_nuvoloso Poco Nuvoloso 16 10 67 1018 10 N 14.8
Ieri h: 16:20 poco_nuvoloso Poco Nuvoloso 16 10 67 1018 10 N 16.7
Ieri h: 15:50 poco_nuvoloso Poco Nuvoloso 16 9 63 1018 10 N 16.7